User: anonymous   Login
Location: Unspecified
(0.0000°N, 0.0000°E)
Time: 09:28:51
(UTC+00:00)
Language:

LANDSAT 8 - Orbit

View from above orbital plane
View from above orbital plane
View from above satellite
View from above satellite

Ground track
Ground track

The orbit data is extracted from the following two-line orbital elements,

1 39084U 13008A   17230.71632326 +.00000028 +00000-0 +16384-4 0  9995
2 39084 098.2192 300.3596 0001355 089.2791 270.8563 14.57107273228339
Epoch (UTC): 18 August 2017 17:11:30
Eccentricity: 0.0001355
inclination: 98.2192°
perigee height: 701 km
apogee height: 703 km
right ascension of ascending node: 300.3596°
argument of perigee: 89.2791°
revolutions per day: 14.57107273
mean anomaly at epoch: 270.8563°
orbit number at epoch: 22833

The dashed part of the orbit path shows where the satellite is in the earth's shadow,  

DLR